Tracking 18852 objects as of 23-Nov-2017
HD Live streaming from Space Station
objects crossing your sky now

ASTRO H DEB

Track ASTRO H DEB now!
10-day predictions


NORAD ID: 41442
Int'l Code: 2016-012L
Perigee: 563.1 km
Apogee: 582.1 km
Inclination: 31.0 °
Period: 96.0 minutes
Semi major axis: 6943 km
RCS: Unknown
Launch date: February 17, 2016
Source: Japan (JPN)
Launch site: TANEGASHIMA SPACE CENTER (TNSTA)

Note: This is SATELLITE DEBRIS
aabbcc
Your satellite tracking list
Your tracking list is empty




NASA's NSSDC Master Catalog

Two Line Element Set (TLE):
1 41442U 16012L   17326.05886574  .00001321  00000-0  95654-4 0  9997
2 41442  31.0085 189.4102 0013675 162.4358 197.6753 15.00478177 96711
Source of the keplerian elements: AFSPC